Temp
10 8 9 8 7 8 9 9 9 8 7 7 5 5 6 8 8 8 10 11 11 11 10 9 9 8 7 6 5 4 4 4 4 4 4 4 4 4 4 5 5 6 6 7
9 9 7 7 8 9 8 9 8 7 7 6 5 6 6 6 6 9 11 11 11 11 10 9 8 7 7 6 5 4 4 3 3 2 3 3 4 4 4 5 5 6 7 7
10 7 7 8 7 9 7 8 7 7 5 5 4 8 9 9 8 10 10 10 10 10 10 9 8 7 6 5 4 4 3 3 3 3 2 2 3 3 4 4 6 6 7 8
7 7 7 7 8 7 9 6 6 6 5 8 5 10 10 8 7 8 10 10 11 10 10 9 8 7 6 5 4 3 3 2 2 2 2 2 2 3 4 4 6 7 7 8
8 7 7 8 7 6 8 5 5 6 5 5 7 6 9 7 11 10 9 10 11 11 10 9 7 7 6 5 4 3 3 2 2 2 2 1 2 3 4 4 5 7 6 6
5 5 5 5 5 5 5 6 4 3 4 2 7 7 10 10 11 10 10 11 11 10 9 8 7 7 5 5 4 3 3 2 1 2 1 1 2 4 4 4 5 6 7 7
5 6 5 5 6 5 6 5 3 5 2 6 5 5 8 9 8 9 9 11 11 10 9 9 7 6 5 4 3 3 3 2 2 1 2 1 2 3 4 4 4 5 7 7
7 8 5 4 5 6 6 6 4 8 6 5 5 7 11 8 9 9 10 10 10 10 9 9 7 6 6 4 3 3 3 2 2 1 1 1 2 3 4 4 4 5 6 7
5 7 3 3 4 4 5 4 5 1 -4 2 6 7 8 8 7 8 9 9 10 10 9 8 7 6 5 4 3 3 2 2 2 1 1 1 2 2 3 3 4 4 5 6
6 7 2 3 4 4 5 4 5 1 7 7 6 7 9 10 9 7 7 9 11 10 9 8 7 6 5 4 4 3 3 2 2 1 0 0 1 2 2 4 4 5 5 6
1 5 3 3 2 4 3 2 4 4 4 4 3 9 5 9 9 8 8 11 11 11 10 8 7 7 5 4 4 4 3 2 2 1 1 1 1 1 2 3 5 6 5 6
5 4 3 3 1 2 3 6 5 5 4 -1 1 6 9 6 8 8 10 11 11 10 10 9 8 7 6 5 4 4 3 2 2 2 0 -0 1 1 2 3 3 4 5 6
5 4 3 5 3 2 3 3 4 3 2 1 3 7 6 6 6 9 9 12 11 10 10 9 9 8 6 5 5 4 4 3 2 1 0 0 0 0 0 2 4 5 5 5
7 0 7 9 9 4 1 1 3 3 1 3 4 6 9 4 4 8 11 11 11 10 9 9 10 9 7 6 5 5 4 4 3 2 0 1 1 0 0 -0 2 4 5 5
6 6 0 -1 3 6 5 1 1 2 5 6 10 4 9 5 3 9 10 11 9 10 9 9 10 9 8 7 6 6 5 4 3 3 1 1 1 1 0 0 1 3 4 5
3 3 -0 2 -2 -0 2 2 1 3 0 2 5 5 9 10 9 8 12 11 11 11 10 9 9 9 8 7 7 6 5 5 4 3 3 1 2 2 1 1 1 2 3 4
3 1 2 4 -3 -2 5 4 3 2 2 5 4 9 8 7 7 8 10 11 10 11 11 11 11 10 9 8 7 7 6 5 4 4 3 2 2 2 2 2 2 2 2 3
2 3 1 1 0 7 7 6 4 4 4 3 5 6 7 6 8 8 8 8 10 11 12 12 11 10 9 8 8 7 7 6 5 5 4 4 3 2 3 3 3 3 3 3
2 3 3 5 4 6 9 3 3 5 10 5 5 7 7 7 8 9 9 9 11 10 12 12 12 10 9 9 8 8 7 6 6 6 5 4 4 3 3 3 4 4 4 4
3 4 5 4 6 7 8 7 6 6 7 9 5 5 5 6 8 7 10 10 11 11 11 12 11 10 10 9 8 8 8 7 6 6 6 5 4 4 4 4 4 3 4 5
3 3 7 6 7 7 7 6 6 7 10 8 8 8 7 5 9 10 9 10 10 12 11 11 11 11 10 9 9 8 8 8 6 6 6 6 5 5 4 4 4 4 4 4
2 5 6 5 7 8 6 4 8 9 10 11 10 10 10 10 10 10 9 10 10 11 11 11 11 10 9 9 9 9 9 7 7 7 6 6 6 5 5 4 4 5 5 5
6 4 5 7 8 8 6 10 10 11 11 11 11 11 10 11 11 10 10 9 10 9 10 11 11 10 10 9 9 9 8 8 7 7 7 6 6 6 6 5 5 4 4 5
-0 1 1 3 4 4 8 10 10 10 11 11 10 10 10 11 10 10 10 10 10 10 10 10 10 10 10 10 9 9 7 8 8 8 7 7 7 7 7 6 6 6 5 5
1 1 -1 -0 3 5 7 8 10 10 10 10 10 10 10 10 11 10 10 10 10 10 10 10 11 11 11 10 10 9 9 9 8 8 7 8 7 7 7 7 6 6 6 6
-0 -1 4 4 8 8 10 12 12 10 11 11 10 10 10 10 10 10 10 10 10 10 10 10 10 10 10 10 10 9 9 9 8 8 8 8 8 7 7 6 6 6 6 6
Height
1523 1530 1537 1539 1541 1542 1540 1540 1540 1535 1534 1533 1529 1524 1511 1505 1506 1504 1503 1503 1504 1504 1505 1504 1502 1502 1502 1501 1498 1495 1493 1489 1485 1483 1480 1478 1477 1475 1476 1478 1479 1481 1482 1483
1527 1530 1535 1537 1538 1540 1541 1542 1541 1538 1536 1537 1529 1517 1507 1502 1500 1499 1500 1501 1502 1502 1503 1502 1501 1500 1499 1498 1495 1493 1490 1487 1484 1481 1478 1475 1474 1474 1474 1475 1476 1477 1478 1479
1527 1533 1535 1535 1539 1541 1543 1542 1542 1545 1540 1535 1535 1516 1506 1502 1501 1498 1499 1499 1500 1500 1500 1500 1499 1497 1496 1495 1493 1490 1488 1485 1481 1479 1477 1474 1472 1473 1472 1472 1473 1474 1474 1474
1534 1535 1535 1534 1539 1544 1540 1545 1545 1545 1545 1540 1538 1528 1508 1507 1504 1498 1496 1498 1498 1498 1498 1497 1496 1494 1494 1493 1491 1489 1486 1483 1480 1478 1476 1474 1471 1471 1471 1470 1470 1470 1471 1469
1534 1538 1537 1533 1538 1543 1542 1545 1545 1545 1547 1549 1537 1545 1512 1509 1501 1497 1495 1495 1495 1496 1496 1495 1494 1492 1491 1490 1488 1487 1485 1482 1479 1477 1474 1473 1471 1471 1471 1470 1469 1469 1468 1464
1537 1538 1539 1538 1540 1543 1544 1544 1547 1550 1553 1570 1537 1541 1514 1508 1499 1497 1494 1494 1494 1494 1493 1493 1492 1490 1489 1488 1487 1485 1483 1481 1479 1477 1474 1473 1471 1472 1472 1471 1469 1468 1465 1464
1538 1539 1540 1539 1539 1543 1543 1546 1567 1557 1572 1554 1544 1547 1513 1502 1499 1496 1494 1493 1493 1493 1492 1491 1490 1488 1487 1487 1485 1484 1482 1480 1478 1477 1475 1473 1472 1473 1472 1471 1470 1468 1467 1464
1536 1538 1538 1540 1540 1540 1544 1544 1562 1556 1563 1557 1547 1534 1505 1500 1497 1496 1494 1494 1493 1492 1491 1490 1488 1487 1486 1485 1484 1483 1481 1480 1478 1477 1476 1475 1473 1472 1471 1470 1469 1467 1469 1467
1539 1535 1540 1541 1541 1545 1546 1552 1549 1571 1595 1575 1537 1521 1504 1498 1497 1495 1493 1493 1491 1490 1491 1490 1487 1486 1485 1485 1484 1482 1480 1480 1478 1477 1476 1475 1474 1472 1471 1469 1468 1468 1468 1469
1519 1533 1544 1543 1543 1545 1543 1547 1551 1565 1552 1555 1543 1530 1515 1500 1497 1494 1491 1489 1489 1489 1489 1489 1487 1485 1485 1484 1483 1481 1480 1479 1478 1477 1476 1475 1473 1472 1471 1469 1469 1469 1470 1470
1519 1523 1547 1545 1546 1543 1549 1553 1549 1551 1557 1566 1571 1520 1501 1495 1493 1492 1488 1486 1488 1488 1488 1487 1486 1484 1483 1483 1482 1481 1480 1480 1479 1478 1476 1475 1473 1472 1471 1471 1470 1470 1470 1472
1513 1522 1546 1542 1543 1543 1542 1537 1540 1547 1556 1573 1567 1528 1489 1491 1490 1490 1488 1487 1487 1486 1486 1486 1485 1484 1482 1482 1481 1481 1481 1480 1479 1478 1476 1475 1474 1473 1471 1472 1473 1473 1473 1473
1507 1525 1547 1537 1544 1544 1542 1538 1538 1543 1549 1561 1556 1519 1487 1487 1489 1487 1487 1485 1484 1484 1484 1484 1483 1483 1481 1481 1481 1480 1480 1480 1479 1478 1477 1476 1475 1474 1471 1471 1471 1474 1475 1475
1502 1522 1512 1518 1514 1528 1544 1539 1536 1538 1556 1543 1532 1509 1487 1487 1488 1485 1484 1482 1480 1480 1480 1481 1481 1482 1481 1479 1480 1480 1480 1480 1480 1479 1478 1478 1476 1475 1473 1473 1473 1474 1476 1477
1503 1511 1526 1530 1522 1520 1523 1533 1537 1538 1524 1521 1492 1510 1482 1481 1483 1480 1478 1475 1473 1472 1473 1475 1478 1480 1480 1479 1479 1480 1480 1480 1480 1480 1479 1479 1478 1477 1475 1474 1474 1476 1478 1480
1503 1518 1523 1525 1533 1532 1530 1524 1525 1523 1527 1520 1508 1500 1475 1474 1476 1475 1473 1472 1469 1467 1467 1469 1474 1476 1478 1478 1479 1479 1480 1480 1480 1480 1480 1481 1481 1479 1479 1479 1478 1478 1481 1483
1501 1513 1519 1524 1539 1538 1523 1502 1508 1508 1507 1500 1507 1471 1469 1470 1471 1469 1469 1468 1466 1465 1463 1465 1470 1474 1477 1478 1479 1479 1479 1480 1481 1481 1481 1482 1483 1483 1482 1482 1483 1483 1483 1484
1499 1503 1514 1531 1533 1510 1490 1486 1488 1493 1486 1488 1480 1469 1466 1468 1467 1465 1463 1462 1461 1463 1463 1465 1469 1473 1475 1477 1478 1480 1480 1480 1481 1482 1482 1483 1484 1486 1486 1486 1486 1487 1488 1489
1492 1496 1512 1511 1516 1497 1479 1486 1487 1487 1465 1466 1465 1460 1462 1467 1465 1459 1458 1456 1455 1459 1462 1464 1468 1472 1474 1476 1478 1480 1481 1482 1482 1483 1483 1484 1485 1486 1487 1489 1490 1490 1491 1492
1490 1492 1492 1508 1503 1497 1476 1472 1475 1477 1477 1454 1457 1457 1460 1464 1466 1459 1456 1454 1453 1455 1460 1463 1466 1469 1472 1474 1477 1479 1481 1482 1483 1484 1485 1485 1486 1487 1488 1488 1489 1491 1493 1494
1494 1494 1482 1490 1487 1477 1467 1469 1474 1483 1465 1453 1453 1454 1456 1460 1457 1455 1455 1455 1453 1455 1458 1462 1465 1468 1472 1474 1476 1478 1480 1482 1483 1484 1485 1486 1486 1487 1488 1489 1490 1491 1492 1494
1475 1480 1480 1486 1481 1470 1460 1470 1467 1454 1451 1452 1453 1453 1453 1454 1454 1453 1453 1454 1454 1454 1456 1460 1464 1467 1470 1473 1475 1477 1479 1481 1483 1484 1485 1486 1486 1487 1488 1489 1490 1491 1492 1492
1455 1452 1461 1459 1450 1445 1447 1445 1446 1445 1450 1452 1452 1452 1452 1452 1452 1452 1452 1453 1453 1454 1456 1458 1462 1465 1467 1470 1473 1475 1478 1480 1482 1483 1484 1485 1486 1487 1487 1488 1489 1491 1492 1493
1451 1447 1454 1453 1441 1440 1441 1442 1444 1444 1444 1450 1452 1452 1451 1452 1452 1452 1451 1452 1452 1453 1456 1458 1460 1463 1465 1468 1470 1474 1475 1478 1480 1482 1483 1485 1486 1487 1487 1488 1489 1489 1491 1493
1434 1439 1445 1445 1437 1437 1434 1434 1437 1440 1442 1444 1448 1450 1450 1451 1451 1451 1451 1452 1452 1453 1455 1456 1459 1461 1463 1466 1468 1470 1472 1475 1477 1479 1481 1482 1484 1485 1486 1486 1487 1488 1489 1490
1420 1424 1428 1430 1424 1425 1426 1428 1431 1434 1435 1437 1440 1444 1448 1449 1449 1448 1449 1450 1451 1452 1454 1456 1458 1459 1461 1463 1466 1467 1469 1472 1474 1476 1478 1480 1482 1483 1484 1485 1485 1486 1487 1488
Wind_Speed
2 5 2 2 0 2 2 1 3 4 2 4 5 10 16 23 18 23 18 11 9 11 12 12 13 10 14 16 16 19 21 21 20 18 17 11 13 11 11 12 13 14 14 18
4 3 4 1 1 0 2 2 4 5 2 3 6 16 13 6 7 14 13 8 7 9 10 11 12 12 14 16 16 20 20 19 18 16 16 14 11 10 10 10 13 14 15 16
4 4 2 3 3 1 1 2 1 3 8 2 8 6 5 3 5 5 8 6 6 8 9 9 11 13 13 14 17 18 18 17 16 14 14 11 8 7 7 8 11 11 14 18
5 0 2 4 2 2 2 1 1 3 5 3 4 4 4 4 8 5 10 11 10 8 7 9 11 12 12 13 15 17 17 15 14 13 11 10 6 5 5 8 5 9 10 17
2 1 1 2 2 0 1 1 1 1 2 3 1 2 6 3 4 5 9 7 6 6 7 8 10 12 12 12 13 16 15 14 12 11 10 7 4 4 5 7 6 6 4 10
3 1 1 2 2 1 1 2 4 3 2 2 1 2 5 3 3 4 5 4 4 7 6 7 9 11 10 12 13 14 14 13 11 12 9 6 4 1 5 5 7 6 3 6
4 0 1 2 3 1 2 3 4 6 4 4 2 2 8 5 6 5 7 8 5 7 5 6 8 9 9 10 11 12 11 11 11 11 10 6 3 2 4 5 5 2 2 5
5 4 3 2 2 3 2 2 4 4 1 5 1 5 4 5 7 6 8 9 8 9 7 6 7 7 7 7 9 10 9 9 9 9 8 6 3 1 3 4 4 1 4 6
5 2 1 3 2 1 2 2 2 6 2 3 3 7 7 5 8 9 12 10 13 10 8 6 6 7 7 6 7 8 9 8 7 8 6 7 5 4 2 2 3 2 4 6
5 4 2 1 1 3 1 4 3 3 1 4 5 5 5 5 7 7 10 15 13 9 7 7 5 6 5 5 6 7 7 7 7 8 8 8 6 4 2 0 2 1 3 6
4 3 3 2 3 6 1 1 3 3 3 4 1 6 7 7 6 8 13 13 11 9 8 5 5 5 3 5 5 5 5 6 6 8 7 6 6 4 3 1 3 3 3 6
6 5 3 5 2 2 1 2 3 4 4 0 2 7 2 6 5 7 12 12 11 10 9 6 5 4 3 3 5 6 5 6 7 8 8 9 8 7 2 1 2 3 5 6
8 0 3 5 3 3 3 4 3 4 3 6 5 6 1 3 7 11 14 15 15 14 13 10 7 4 2 1 3 4 4 5 6 8 9 9 8 7 5 1 4 5 5 4
7 3 6 6 5 5 2 4 6 4 3 4 7 8 11 7 5 11 17 22 25 23 19 16 12 8 4 2 2 3 4 5 6 8 9 9 9 9 7 2 5 8 7 6
3 5 3 1 3 3 5 5 6 8 6 6 12 10 17 7 6 15 27 21 19 18 18 22 19 11 7 5 5 5 4 5 6 8 10 10 10 10 10 8 6 10 11 12
1 3 3 2 2 1 5 7 11 13 3 11 10 19 20 31 25 18 14 14 18 18 16 18 19 16 11 7 6 8 6 5 6 7 9 11 11 12 12 11 10 10 12 12
7 6 3 4 1 3 6 9 14 5 6 11 10 20 6 5 7 14 15 17 20 15 9 11 20 16 12 9 8 8 8 7 6 7 9 11 12 12 13 13 11 10 11 13
7 6 3 3 2 4 7 2 6 11 10 16 14 15 16 13 20 26 26 26 22 14 9 13 16 16 15 13 12 11 9 7 7 7 9 10 12 12 12 12 12 12 11 12
3 4 3 5 4 6 9 5 8 8 11 17 22 21 19 15 17 11 8 8 16 13 9 12 14 15 15 13 13 12 11 10 8 7 8 10 11 12 11 11 11 10 10 10
2 3 3 3 5 7 7 3 6 4 6 6 15 9 5 3 1 4 8 10 6 15 12 15 16 16 16 15 14 13 11 10 9 8 8 8 9 11 10 10 11 9 7 8
3 0 7 5 5 6 5 8 9 5 6 5 9 8 9 5 8 7 9 8 3 15 13 16 16 15 14 15 14 13 12 10 9 9 9 9 9 8 8 9 9 10 10 9
8 10 5 3 7 13 12 6 9 4 5 6 7 7 5 4 6 9 5 4 4 15 16 16 16 15 16 16 15 14 11 12 11 10 10 10 10 9 9 9 8 8 9 9
7 7 8 12 7 5 28 15 27 9 4 8 11 6 4 4 4 6 5 6 3 9 17 16 15 16 16 16 15 13 12 12 10 10 10 10 10 10 10 11 11 10 10 10
5 5 4 3 7 11 23 25 29 19 14 8 7 5 5 6 6 6 5 4 4 8 14 14 14 16 17 17 16 13 15 13 12 10 9 9 8 8 8 8 9 10 10 11
6 14 7 5 6 9 25 24 28 28 21 14 15 16 13 14 12 11 7 4 5 7 11 13 14 14 15 16 16 16 17 15 14 13 13 11 10 10 9 8 8 8 9 10
9 7 8 6 19 10 11 15 17 23 25 24 24 28 22 18 15 12 8 8 7 10 12 11 11 13 14 16 17 18 18 16 15 15 15 13 12 12 12 11 11 10 10 10
Wind_Direction
51 76 75 111 31 310 2 339 284 269 47 313 241 275 282 282 277 265 269 272 284 302 316 325 332 304 286 299 311 320 323 320 318 317 317 295 279 250 241 244 242 236 239 237
39 120 164 168 49 352 37 297 284 284 318 358 326 295 281 295 259 245 254 247 272 300 319 321 323 309 300 306 311 320 323 323 320 322 322 316 298 264 230 233 243 245 238 239
129 140 126 111 56 36 182 219 266 250 324 246 313 295 344 322 281 273 245 251 255 283 309 326 331 325 316 310 311 321 325 323 320 320 325 316 316 275 256 248 239 239 246 239
80 169 156 108 111 131 272 127 35 328 26 288 7 280 301 330 303 286 269 250 261 278 300 321 324 325 319 307 315 323 328 327 329 331 331 327 342 280 286 295 262 236 258 260
160 132 173 120 120 105 253 105 83 40 355 355 342 65 271 349 297 296 304 280 251 278 303 316 309 325 319 305 318 327 333 332 336 336 332 328 349 294 298 303 260 235 237 350
96 93 23 102 105 146 168 124 60 56 48 18 358 103 282 232 227 288 306 315 273 282 296 310 310 326 322 316 321 332 338 332 338 339 335 331 357 297 323 297 275 257 9 356
7 125 124 80 112 52 88 55 342 356 9 221 15 16 252 273 250 245 285 299 283 280 292 309 307 319 327 321 324 334 341 336 339 348 336 337 10 332 318 303 291 250 178 37
147 304 148 19 88 152 80 125 148 217 294 280 16 238 249 232 296 278 292 292 279 279 292 304 303 320 335 331 330 337 348 348 344 352 347 346 351 337 318 319 337 319 148 132
130 289 37 57 63 69 210 70 147 100 57 37 256 284 294 276 284 278 272 269 267 279 291 302 313 322 331 349 343 347 349 5 349 355 1 360 1 337 326 283 343 26 102 148
209 83 339 34 109 40 22 163 80 10 22 311 292 281 246 258 252 255 258 251 259 270 292 298 305 323 329 354 6 356 2 9 359 359 3 5 4 353 337 239 260 10 128 131
130 91 298 20 204 176 114 26 62 112 125 173 271 277 208 217 221 228 244 246 257 263 283 297 299 323 337 354 14 18 17 23 13 359 2 11 10 2 1 262 216 168 161 146
188 125 137 207 251 325 320 181 180 123 245 116 149 273 214 225 251 253 271 272 266 266 274 292 294 311 332 10 8 34 31 27 18 10 18 48 27 18 35 155 172 160 185 171
182 342 59 349 11 3 231 195 164 101 75 203 147 261 241 228 258 249 266 273 272 271 264 269 285 279 286 55 31 49 54 40 27 21 41 34 38 37 14 110 159 146 155 167
137 105 159 187 188 126 184 206 187 150 134 188 228 277 279 274 253 269 271 283 282 269 270 254 263 260 234 164 121 90 75 57 39 30 60 50 40 44 50 116 151 155 161 149
131 179 128 338 44 154 189 172 185 198 202 186 269 228 264 264 230 274 299 301 293 280 261 249 253 244 213 187 153 134 112 77 57 44 70 67 56 53 60 79 123 145 147 137
174 159 113 352 24 16 261 220 199 221 238 268 280 283 267 275 277 274 289 290 297 294 270 245 231 226 201 184 171 149 135 108 77 64 71 86 70 71 73 70 91 123 131 131
149 137 113 246 30 19 304 224 193 185 205 211 224 243 303 265 242 270 281 274 288 297 272 213 205 209 199 178 174 165 147 131 110 89 81 93 92 83 84 87 83 94 121 131
145 123 104 161 50 236 237 159 167 201 229 213 254 261 256 274 289 297 291 275 267 265 242 206 202 198 192 184 176 174 162 143 127 120 108 103 107 103 95 94 103 103 106 115
8 136 136 151 193 304 308 196 163 175 275 210 225 247 265 287 301 303 345 328 246 229 230 203 199 197 195 187 180 177 173 163 148 137 129 119 118 118 116 112 102 112 120 120
31 338 142 147 183 225 233 177 178 138 286 211 200 233 232 174 333 262 359 353 232 197 205 199 197 197 196 193 189 184 181 173 160 149 144 140 134 134 138 137 130 132 110 106
134 178 217 181 227 280 239 152 141 110 245 169 183 198 175 188 221 285 319 328 278 194 196 198 201 205 200 199 197 191 189 176 172 167 162 160 158 152 152 150 149 157 161 162
154 167 188 129 217 245 175 102 186 192 151 184 174 174 185 261 308 288 286 301 311 196 193 196 203 200 202 203 202 202 193 192 190 183 176 175 175 175 179 180 176 177 179 179
207 187 183 194 208 212 184 208 215 216 204 195 187 193 279 301 338 351 276 266 304 203 197 194 199 205 206 206 206 204 188 208 206 205 197 192 191 193 191 191 199 209 210 208
252 172 184 104 204 230 227 226 239 218 184 211 231 237 274 249 300 320 323 264 222 194 198 200 205 212 209 208 206 194 202 211 211 213 216 217 209 207 209 214 217 216 218 226
181 150 160 270 279 272 244 237 238 233 227 226 249 246 280 263 273 285 289 278 222 202 198 209 215 210 208 208 206 205 212 213 214 216 218 221 223 227 224 221 225 226 229 238
189 160 189 215 210 211 234 244 249 239 237 247 249 254 257 260 263 251 254 244 237 222 220 216 218 212 206 210 209 212 219 222 223 226 228 230 233 236 239 238 237 236 241 252